TimeEDT,TemperatureF,Dew PointF,Humidity,Sea Level PressureIn,VisibilityMPH,Wind Direction,Wind SpeedMPH,Gust SpeedMPH,PrecipitationIn,Events,Conditions,WindDirDegrees,DateUTC
12:15 AM,64.4,62.6,94,30.08,10.0,NE,4.6,-,N/A,,Scattered Clouds,50,2013-09-29 04:15:00
12:35 AM,64.4,62.6,94,30.08,10.0,NE,4.6,-,N/A,,Scattered Clouds,50,2013-09-29 04:35:00
12:55 AM,62.6,62.6,100,30.08,10.0,NE,3.5,-,N/A,,Clear,50,2013-09-29 04:55:00
1:15 AM,62.6,62.6,100,30.08,10.0,NE,3.5,-,N/A,,Clear,40,2013-09-29 05:15:00
1:35 AM,62.6,62.6,100,30.08,10.0,NNE,4.6,-,N/A,,Clear,30,2013-09-29 05:35:00
1:55 AM,64.4,60.8,88,30.08,10.0,NNE,4.6,-,N/A,,Clear,30,2013-09-29 05:55:00
2:15 AM,62.6,60.8,94,30.08,10.0,NNE,4.6,-,N/A,,Clear,30,2013-09-29 06:15:00
2:35 AM,62.6,60.8,94,30.07,10.0,NE,5.8,-,N/A,,Mostly Cloudy,40,2013-09-29 06:35:00
2:55 AM,62.6,60.8,94,30.07,10.0,NE,5.8,-,N/A,,Mostly Cloudy,40,2013-09-29 06:55:00
3:15 AM,62.6,60.8,94,30.07,10.0,NE,5.8,-,N/A,,Mostly Cloudy,40,2013-09-29 07:15:00
3:35 AM,62.6,60.8,94,30.06,10.0,NE,5.8,-,N/A,,Mostly Cloudy,40,2013-09-29 07:35:00
3:55 AM,62.6,60.8,94,30.06,10.0,NE,4.6,-,N/A,,Mostly Cloudy,40,2013-09-29 07:55:00
4:15 AM,62.6,60.8,94,30.06,10.0,NNE,4.6,-,N/A,,Overcast,30,2013-09-29 08:15:00
4:35 AM,62.6,60.8,94,30.06,10.0,NE,4.6,-,N/A,,Overcast,40,2013-09-29 08:35:00
4:55 AM,62.6,60.8,94,30.06,10.0,NE,5.8,-,N/A,,Overcast,50,2013-09-29 08:55:00
5:15 AM,62.6,60.8,94,30.06,10.0,NNE,6.9,-,N/A,,Overcast,30,2013-09-29 09:15:00
5:35 AM,62.6,60.8,94,30.06,10.0,NNE,6.9,-,N/A,,Scattered Clouds,30,2013-09-29 09:35:00
5:55 AM,62.6,60.8,94,30.07,10.0,NE,6.9,-,N/A,,Scattered Clouds,50,2013-09-29 09:55:00
6:15 AM,60.8,59.0,94,30.07,10.0,ENE,5.8,-,N/A,,Clear,60,2013-09-29 10:15:00
6:35 AM,60.8,59.0,94,30.08,10.0,ENE,4.6,-,N/A,,Clear,60,2013-09-29 10:35:00
6:55 AM,60.8,59.0,94,30.08,10.0,NNE,5.8,-,N/A,,Scattered Clouds,30,2013-09-29 10:55:00
7:15 AM,60.8,59.0,94,30.08,10.0,NE,5.8,-,N/A,,Mostly Cloudy,40,2013-09-29 11:15:00
7:35 AM,60.8,59.0,94,30.08,10.0,NE,4.6,-,N/A,,Mostly Cloudy,40,2013-09-29 11:35:00
7:55 AM,60.8,59.0,94,30.08,10.0,NE,4.6,-,N/A,,Clear,50,2013-09-29 11:55:00
8:15 AM,60.8,60.8,100,30.08,10.0,NE,4.6,-,N/A,,Clear,50,2013-09-29 12:15:00
8:35 AM,62.6,60.8,94,30.08,10.0,NE,5.8,-,N/A,,Clear,40,2013-09-29 12:35:00
9:15 AM,66.2,62.6,88,30.08,10.0,NE,8.1,-,N/A,,Clear,40,2013-09-29 13:15:00
9:35 AM,68.0,62.6,83,30.08,10.0,ENE,6.9,-,N/A,,Clear,70,2013-09-29 13:35:00
9:55 AM,69.8,62.6,78,30.08,10.0,East,6.9,-,N/A,,Clear,80,2013-09-29 13:55:00
10:15 AM,69.8,64.4,83,30.08,10.0,NE,6.9,-,N/A,,Clear,40,2013-09-29 14:15:00
10:35 AM,71.6,64.4,78,30.08,10.0,NE,4.6,-,N/A,,Clear,40,2013-09-29 14:35:00
10:55 AM,73.4,64.4,73,30.08,10.0,ENE,8.1,-,N/A,,Clear,70,2013-09-29 14:55:00
11:15 AM,73.4,64.4,73,30.08,10.0,NE,9.2,-,N/A,,Clear,50,2013-09-29 15:15:00
11:35 AM,75.2,64.4,69,30.08,10.0,ENE,6.9,-,N/A,,Clear,70,2013-09-29 15:35:00
11:55 AM,77.0,64.4,65,30.07,10.0,ENE,9.2,-,N/A,,Scattered Clouds,60,2013-09-29 15:55:00
12:15 PM,77.0,64.4,65,30.07,10.0,East,10.4,-,N/A,,Scattered Clouds,80,2013-09-29 16:15:00
12:35 PM,78.8,64.4,61,30.07,10.0,NE,5.8,-,N/A,,Scattered Clouds,40,2013-09-29 16:35:00
12:55 PM,77.0,64.4,65,30.06,10.0,ENE,6.9,-,N/A,,Mostly Cloudy,60,2013-09-29 16:55:00
1:15 PM,77.0,62.6,61,30.06,10.0,ENE,4.6,-,N/A,,Scattered Clouds,70,2013-09-29 17:15:00
1:35 PM,78.8,64.4,61,30.04,10.0,ENE,5.8,-,N/A,,Mostly Cloudy,60,2013-09-29 17:35:00
1:55 PM,78.8,62.6,57,30.03,10.0,NE,6.9,-,N/A,,Mostly Cloudy,40,2013-09-29 17:55:00
2:15 PM,77.0,62.6,61,30.03,10.0,NE,3.5,-,N/A,,Scattered Clouds,50,2013-09-29 18:15:00
2:35 PM,78.8,62.6,57,30.01,10.0,ENE,6.9,-,N/A,,Clear,60,2013-09-29 18:35:00
2:55 PM,80.6,62.6,54,30.01,10.0,ENE,8.1,-,N/A,,Scattered Clouds,70,2013-09-29 18:55:00
3:15 PM,78.8,62.6,57,30.00,10.0,North,4.6,-,N/A,,Overcast,10,2013-09-29 19:15:00
3:35 PM,80.6,62.6,54,30.00,10.0,ENE,6.9,-,N/A,,Mostly Cloudy,70,2013-09-29 19:35:00
3:55 PM,80.6,62.6,54,30.00,10.0,ENE,8.1,-,N/A,,Scattered Clouds,70,2013-09-29 19:55:00
4:15 PM,80.6,62.6,54,29.99,10.0,ESE,5.8,-,N/A,,Scattered Clouds,120,2013-09-29 20:15:00
4:35 PM,80.6,62.6,54,29.99,10.0,East,5.8,-,N/A,,Scattered Clouds,80,2013-09-29 20:35:00
4:55 PM,77.0,64.4,65,29.99,10.0,ESE,6.9,-,N/A,,Mostly Cloudy,120,2013-09-29 20:55:00
5:15 PM,77.0,64.4,65,29.99,10.0,ESE,6.9,-,N/A,,Overcast,120,2013-09-29 21:15:00
5:35 PM,75.2,64.4,69,29.99,10.0,ESE,5.8,-,N/A,,Mostly Cloudy,120,2013-09-29 21:35:00
5:55 PM,75.2,64.4,69,29.99,10.0,SE,4.6,-,N/A,,Scattered Clouds,140,2013-09-29 21:55:00
6:15 PM,73.4,64.4,73,30.00,10.0,ESE,4.6,-,N/A,,Scattered Clouds,120,2013-09-29 22:15:00
6:35 PM,73.4,62.6,69,30.00,10.0,ESE,8.1,-,N/A,,Scattered Clouds,120,2013-09-29 22:35:00
6:55 PM,71.6,62.6,73,30.01,10.0,SE,4.6,-,N/A,,Clear,140,2013-09-29 22:55:00
7:15 PM,69.8,62.6,78,30.01,10.0,Calm,Calm,-,N/A,,Clear,0,2013-09-29 23:15:00
7:35 PM,68.0,62.6,83,30.01,10.0,Calm,Calm,-,N/A,,Clear,0,2013-09-29 23:35:00
7:55 PM,66.2,62.6,88,30.02,10.0,Calm,Calm,-,N/A,,Clear,0,2013-09-29 23:55:00
8:15 PM,64.4,62.6,94,30.03,10.0,Calm,Calm,-,N/A,,Clear,0,2013-09-30 00:15:00
8:35 PM,64.4,62.6,94,30.03,10.0,Calm,Calm,-,N/A,,Clear,0,2013-09-30 00:35:00
8:55 PM,62.6,62.6,100,30.03,10.0,Calm,Calm,-,N/A,,Clear,0,2013-09-30 00:55:00
9:15 PM,62.6,62.6,100,30.03,10.0,Calm,Calm,-,N/A,,Clear,0,2013-09-30 01:15:00
9:35 PM,62.6,60.8,94,30.03,10.0,Calm,Calm,-,N/A,,Clear,0,2013-09-30 01:35:00
9:55 PM,60.8,60.8,100,30.04,10.0,Calm,Calm,-,N/A,,Clear,0,2013-09-30 01:55:00
10:15 PM,60.8,60.8,100,30.04,10.0,Calm,Calm,-,N/A,,Clear,0,2013-09-30 02:15:00
10:35 PM,60.8,60.8,100,30.04,10.0,Calm,Calm,-,N/A,,Clear,0,2013-09-30 02:35:00
10:55 PM,60.8,60.8,100,30.04,10.0,Calm,Calm,-,N/A,,Clear,0,2013-09-30 02:55:00
11:15 PM,59.0,59.0,100,30.04,10.0,Calm,Calm,-,N/A,,Clear,0,2013-09-30 03:15:00
11:35 PM,59.0,59.0,100,30.04,10.0,Calm,Calm,-,N/A,,Clear,0,2013-09-30 03:35:00
11:55 PM,59.0,59.0,100,30.04,10.0,Calm,Calm,-,N/A,,Clear,0,2013-09-30 03:55:00